Location: Blanot
(47.1713°N, 4.2340°E)
Time: 20:58:24
(UTC+00:00)

Cosmos 1441 Rocket - Pass Details

Date: 14 July 2020
Orbit: 495 x 541 km, 81.1° (Epoch: 14 August)

Event Time Altitude Azimuth Distance (km) Brightness Sun altitude
Exits shadow 00:10:20 67° 224° (SW) 587 3.2 -21.0°
Maximum altitude 00:10:45 77° 281° (W) 557 3.2 -21.0°
Drops below altitude 10° 00:14:43 10° 9° (N) 1,797 7.1 -20.9°
Sets 00:16:52 0° 11° (N) 2,686 8.4 -20.9°
